www.pogodaiklimat.ru

Погода и климат >> Архив погоды >> Таиланд >> У-Тхонг Агромет


ПОГОДА в У-Тхонг Агромете

  • Прогноз погоды в У-Тхонг Агромете
  • Монитор погоды в У-Тхонг Агромете

АРХИВ ПОГОДЫ в У-Тхонг Агромете

Время (UTC), дата Ветер
(напр.,м/с)
 
Видим.   Явления Облачность Т
(С)
Тd
(С)
f
(%)
Тe
(С)
Тes
(С)
Комфортность P
(гПа)
Po
(гПа)
Тmin
(С)
Tmax
(С)
R
(мм)
R24
(мм)
S
(см)
00 16.08 штиль 0 8000 м дымка 10/0
[Cs]
+26.7 +24.5 88 +38 +39 очень
душно
1006.6 1005.9 +24.9
03 16.08 штиль 0 9000 м мгла 8/0
[Cs]
+31.1 +23.4 64 +42 +59 опасность
перегрева
1006.8 1006.1
06 16.08 З 2 9000 м мгла 8/3 600 м
[Cu med, cong Cs]
+34.1 +23.0 52 +44 +57 опасность
перегрева
1005.0 1004.3
09 16.08 штиль 0 9000 м мгла 10/3 600 м
[Cb calv Cs]
+34.5 +23.0 51 +44 +50 опасность
перегрева
1002.5 1001.7
12 16.08 штиль 0 8000 м дымка {дождь} 10/3 600 м
[Sc Cs]
+30.4 +24.9 72 +43 +43 опасность
перегрева
1004.8 1004.0 +34.7 2
15 16.08 штиль 0 7000 м дымка 10/3 600 м
[Sc Cs]
+28.1 +25.7 87 +42 +42 опасность
перегрева
1006.8 1006.1
18 16.08 штиль 0 7000 м дымка 10/1 600 м
[Sc Cs]
+27.7 +25.1 86 +40 +40 очень
душно
1006.5 1005.8
21 16.08 штиль 0 7000 м дымка 10/1 600 м
[Sc Cs]
+27.1 +24.7 87 +39 +39 очень
душно
1006.2 1005.4
00 17.08 штиль 0 8000 м дымка 10/0
[Cs]
+27.0 +24.1 84 +37 +39 очень
душно
1006.6 1005.8 +26.2
03 17.08 ЮЗ 4 9000 м дымка 10/3 600 м
[Cu med, cong Ac und Cs]
+30.0 +24.1 71 +42 +45 опасность
перегрева
1008.0 1007.2
06 17.08 ЮЗ 10 10 км 10/3 600 м
[Cu med, cong Ac und Cs]
+32.5 +22.4 55 +42 +42 опасность
перегрева
1007.4 1006.6
09 17.08 ЮЗ 4 8000 м в посл. час дождь 10/5 600 м
[Cu med, cong Ac und Cs]
+29.5 +24.3 74 +41 +43 опасность
перегрева
1005.6 1004.8 4
12 17.08 штиль 0 6000 м дымка 10/3 600 м
[Cu med, cong Cs]
+27.8 +24.5 82 +39 +39 очень
душно
1007.0 1006.2 +34.4 4
15 17.08 штиль 0 5000 м дымка 10/0
[Cs]
+27.3 +24.3 84 +38 +38 очень
душно
1009.2 1008.5
18 17.08 штиль 0 4000 м дымка 10/0
[Cs]
+27.4 +23.2 78 +37 +37 очень
душно
1009.1 1008.4
21 17.08 штиль 0 3000 м дымка 10/0
[Cs]
+26.0 +23.7 87 +35 +35 очень
душно
1008.8 1008.0
00 18.08 штиль 0 8000 м дымка 10/0
[Cs]
+25.9 +24.0 89 +36 +37 очень
душно
1009.9 1009.2 +25.0
03 18.08 штиль 0 9000 м дымка 8/1 600 м
[Sc Ac und Cs]
+29.6 +22.9 67 +39 +51 опасность
солнечного
удара
1011.0 1010.2
06 18.08 штиль 0 9000 м мгла 8/3 600 м
[Sc Ac und Cs]
+32.5 +22.4 55 +42 +55 опасность
перегрева
1009.1 1008.3
09 18.08 штиль 0 9000 м мгла 8/3 600 м
[Sc Ac und Cs]
+32.8 +23.0 56 +43 +48 опасность
перегрева
1007.3 1006.5
12 18.08 штиль 0 8000 м мгла 9/3 600 м
[Sc Ac und Cs]
+31.1 +23.1 63 +42 +42 опасность
перегрева
1008.3 1007.5 +34.4
15 18.08 штиль 0 8000 м дымка 8/0
[Ac und Cs]
+28.0 +22.7 73 +37 +37 очень
душно
1010.5 1009.8
18 18.08 штиль 0 7000 м дымка 8/0
[Ac und Cs]
+27.1 +22.5 76 +36 +36 очень
душно
1009.2 1008.4
21 18.08 штиль 0 7000 м дымка 8/0
[Ac und Cs]
+26.6 +22.1 76 +34 +34 очень
душно
1008.0 1007.3
00 19.08 штиль 0 8000 м дымка 8/0
[Ac und Cs]
+26.3 +22.6 80 +35 +36 очень
душно
1009.0 1008.2 +25.3
03 19.08 штиль 0 9000 м мгла 8/3 600 м
[Sc Ac trans Cs]
+30.1 +22.6 64 +39 +49 очень
душно
1009.0 1008.2
06 19.08 штиль 0 9000 м мгла 10/4 600 м
[Sc Cs]
+31.9 +22.6 58 +42 +56 опасность
перегрева
1007.7 1006.9
09 19.08 штиль 0 8000 м мгла 10/10 600 м
[Sc]
+33.4 +22.7 54 +43 +43 опасность
перегрева
1006.4 1005.7
12 19.08 штиль 0 7000 м дымка 10/0
[Cs]
+29.6 +24.7 75 +42 +42 опасность
перегрева
1007.5 1006.7 +34.0
15 19.08 штиль 0 6000 м дымка 10/0
[Cs]
+28.4 +23.0 73 +38 +38 очень
душно
1009.0 1008.3
18 19.08 штиль 0 5000 м дымка 10/0
[Cs]
+27.5 +23.3 78 +37 +37 очень
душно
1007.4 1006.7
21 19.08 штиль 0 5000 м дымка 10/0
[Cs]
+26.5 +23.4 83 +36 +36 очень
душно
1005.8 1005.0
00 20.08 штиль 0 6000 м дымка 10/0
[Cs]
+25.5 +24.6 95 +36 +37 очень
душно
1007.0 1006.3 +24.8
03 20.08 ЮЗ 2 9000 м дымка 10/3 600 м
[Cu med, cong Ac und Cs]
+29.3 +24.1 74 +41 +46 опасность
перегрева
1007.7 1006.9
06 20.08 ЮЗ 2 9000 м мгла 10/4 600 м
[Cu med, cong Ac und Cs]
+31.5 +23.4 62 +42 +49 опасность
перегрева
1006.4 1005.6
09 20.08 ЮЗ 6 9000 м мгла 10/4 600 м
[Cu med, cong Ac und Cs]
+30.6 +22.4 62 +40 +41 очень
душно
1004.1 1003.3
12 20.08 штиль 0 6000 м дымка 10/3 600 м
[Cu med, cong Ac und Cs]
+29.5 +23.6 71 +40 +40 очень
душно
1004.8 1004.0 +33.4
15 20.08 штиль 0 5000 м дымка 10/0
[Cs]
+27.4 +23.2 78 +37 +37 очень
душно
1006.7 1005.9
18 20.08 штиль 0 4000 м дымка 10/0
[Cs]
+26.1 +23.5 86 +35 +35 очень
душно
1005.7 1004.9
21 20.08 штиль 0 3000 м дымка 10/0
[Cs]
+25.6 +23.2 87 +34 +34 очень
душно
1004.6 1003.9
00 21.08 штиль 0 8000 м дымка 10/3 600 м
[Cu med, cong Cs]
+26.0 +23.1 84 +35 +35 очень
душно
1005.8 1005.1 +25.0
03 21.08 штиль 0 9000 м мгла 10/0
[Ac und Cs]
+30.5 +22.8 64 +40 +54 опасность
солнечного
удара
1007.3 1006.5
06 21.08 штиль 0 9000 м в посл. час дождь 10/3 600 м
[Sc Cs]
+32.9 +22.9 56 +43 +59 опасность
перегрева
1005.7 1005.0 0.0
09 21.08 штиль 0 8000 м мгла 10/6 600 м
[Sc Cs]
+32.3 +22.9 58 +42 +46 опасность
перегрева
1003.7 1003.0
12 21.08 штиль 0 7000 м дымка 10/3 600 м
[Sc Cs]
+29.7 +23.3 69 +40 +40 очень
душно
1005.2 1004.4 +34.8
15 21.08 штиль 0 6000 м слаб. дождь 10/5 600 м
[Sc Cs]
+26.5 +24.0 86 +37 +37 очень
душно
1007.6 1006.9 0.2
18 21.08 штиль 0 5000 м в посл. час дождь 10/3 600 м
[Sc Cs]
+25.7 +24.1 91 +36 +36 очень
душно
1006.8 1006.1 0.0
21 21.08 штиль 0 7000 м дымка 9/0
[Cs]
+26.9 +25.3 91 +39 +39 очень
душно
1010.3 1009.5
00 22.08 штиль 0 6000 м дымка 10/0
[Cs]
+24.9 +23.6 92 +34 +35 очень
душно
1007.2 1006.4 +23.9
03 22.08 штиль 0 9000 м мгла 8/3 600 м
[Sc Cs]
+30.6 +22.5 62 +40 +52 опасность
солнечного
удара
1008.9 1008.2
06 22.08 Ю 6 9000 м мгла 8/3 600 м
[Sc Cs]
+32.0 +22.3 57 +41 +46 опасность
перегрева
1007.0 1006.2
09 22.08 ЮЗ 6 9000 м мгла 9/3 600 м
[Sc Cs]
+31.9 +21.7 55 +40 +42 очень
душно
1005.0 1004.3
12 22.08 ЮЗ 6 9000 м мгла 9/3 600 м
[Sc Cs]
+31.0 +22.2 60 +40 +40 очень
душно
1006.1 1005.4 +32.5 0.3
15 22.08 штиль 0 8000 м дымка 8/0
[Cs]
+26.7 +24.7 89 +38 +38 очень
душно
1007.4 1006.6
18 22.08 штиль 0 7000 м дымка 8/0
[Cs]
+26.1 +24.5 91 +37 +37 очень
душно
1008.2 1007.4
21 22.08 штиль 0 7000 м дымка 8/0
[Cs]
+26.0 +24.3 90 +36 +36 очень
душно
1007.5 1006.7

 

Местоположение метеостанции У-Тхонг Агромет (Таиланд): широта 14.30 долгота 99.87 высота над уровнем моря 7 м.

В архиве по умолчанию представлена погода в У-Тхонг Агромете за последнюю неделю. Архивные данные за месяц целиком и за предыдущие месяцы, начиная с января 2011 года, Вы можете получить, выбрав интересующий диапазон дат из раскрывающегося списка и нажав кнопку "Ввод!".


*Определитесь, кто Вы:
робот инопланетянин человек

Внимание! Время в таблицах - всемирное. Для получения местного времени необходимо прибавить поправку, которая равна 7 ч.

Смотрите также архив погоды в соседних городах и на ближайших метеорологических станциях:

Погода в Накхонпатхоме (Таиланд) (33 км)
Погода в Суфанбури (Таиланд) (34 км)
Погода в Канчанабури (Таиланд) (48 км)
Погода в Патхумтхани (Таиланд) (84 км)
Погода в Дон Муанг (Таиланд) (89 км)
Погода в Аюттхая (Таиланд) (95 км)
Погода в Лопбури (Таиланд) (97 км)
Погода в Бангкоке (Таиланд) (98 км)
Погода в Чайнат Агромете (Таиланд) (100 км)
Погода в Самутсонгкхраме (Таиланд) (100 км)

Пояснения к столбцам:

Ветер - указаны скорость ветра в м/с - средняя за 10 мин, порывы в срок и между сроками (в фигурных скобках) и направление, откуда дует ветер: С - северный, СВ - северо-восточный, В - восточный, ЮВ - юго-восточный, Ю - южный, ЮЗ - юго-западный, З - западный, СЗ - северо-западный.
Видимость - горизонтальная дальность видимости в метрах или километрах. При видимости от 1 до 10 км при отсутствии осадков обычно наблюдается дымка, при ухудшении видимости до 1 км и менее - туман. В сухую погоду видимость может ухудшаться дымом, пылью или мглою.
Явления - указаны атмосферные явления, наблюдавшиеся в срок или в последний час перед сроком; фигурными скобками обозначены явления, наблюдавшиеся между сроками (за 1-3 часа до срока); квадратными скобками обозначены град или гололедные отложения с указанием их диаметра в мм.
Облачность - указаны через наклонную черту общая и нижняя облачность в баллах и высота нижней границы облаков в метрах; квадратными скобками обозначены формы облаков: Ci - перистые, Cs - перисто-слоистые, Cc - перисто-кучевые, Ac - высококучевые, As - высокослоистые, Sc - слоисто-кучевые, Ns - слоисто-дождевые, Cu - кучевые, Cb - кучево-дождевые. Подробнее классификацию облаков см. в Атласе облаков (PDF).
T - Температура воздуха - температура, измеренная на высоте 2 м над землей.
Td - Температура точки росы - температура, при понижении до которой содержащийся в воздухе водяной пар достигнет насыщения.
f - Относительная влажность воздуха - влажноcть воздуха, измеренная на высоте 2 м над землей.
Te - Эффективная температура - температура, которую ощущает одетый по сезону человек в тени. Характеристика душности погоды. При расчете учитывается влияние влажности воздуха и скорости ветра на теплоощущения человека.
Tes - Эффективная температура на солнце - температура, которую ощущает человек, с поправкой на солнечный нагрев. Характеристика знойности погоды. Зависит от высоты солнца над горизонтом, облачности и скорости ветра. Ночью, в пасмурную погоду, а также при ветре 12 м/с и более поправка равна нулю.
P - Атмосферное давление - приведенное к уровню моря атмосферное давление.
Po - Атмосферное давление - измеренное на уровне метеостанции атмосферное давление.
Tmin - Минимальная температура - минимум температуры воздуха на высоте 2 м над землей.
Tmax - Максимальная температура - максимум температуры воздуха на высоте 2 м над землей.
R - Количество осадков - Количество выпавших осадков за период времени, мм. При наведении курсора мыши на число - период времени, за который выпало указанное количество осадков.
R24 - Количество осадков - Количество выпавших осадков за 24 часа, мм.
S - Снежный покров - Высота снежного покрова, см. При наведении курсора мыши на число - состояние снежного покрова и степень покрытия местности в баллах.